Regional Weather Roundup
Issued by NWS

Home | Current Version | Previous Version | Graphics & Text | Print | Product List | Glossary Off
Versions: 1 2 3 4 5 6 7 8 9 10 11 12 13 14 15 16 17 18 19 20 21 22 23 24 25 26 27 28 29 30 31 32 33 34 35 36 37 38 39 40 41 42 43 44 45 46 47 48 49 50

378
ASUS43 KMKX 291300
RWRWI

WISCONSIN REGIONAL WEATHER ROUNDUP
NATIONAL WEATHER SERVICE MILWAUKEE/SULLIVAN WI
800 AM CDT FRI APR 29 2016

NOTE: "FAIR" INDICATES FEW OR NO CLOUDS BELOW 12,000 FEET WITH NO
SIGNIFICANT WEATHER AND/OR OBSTRUCTIONS TO VISIBILITY.

WIZ001-002-006>008-014>016-023>028-291400-
NORTHWEST WISCONSIN

CITY           SKY/WX    TMP DP  RH WIND       PRES   REMARKS
SUPERIOR ARPT  SUNNY     34  31  89 CALM      30.20S
ASHLAND        SUNNY     38  33  82 CALM      30.19R
HAYWARD        SUNNY     35  29  78 N6        30.16S WCI  30
SIREN          CLOUDY    35  31  84 NE3       30.17S
CUMBERLAND     SUNNY     34  30  86 N3        30.15S
RICE LAKE      SUNNY     36  29  76 N6        30.17S WCI  31
CHETEK         SUNNY     37  30  75 N3        30.16S
LADYSMITH      MOSUNNY   39  35  83 N6        30.16S
EAU CLAIRE     NOT AVBL
MENOMONIE      CLOUDY    41  41  99 CALM      30.17R
NEW RICHMOND   MOSUNNY   37  37 100 W3        30.18R
OSCEOLA        MOSUNNY   37  37 100 CALM      30.21R
$$

WIZ003>005-009-010-017-018-291400-
NORTH CENTRAL WISCONSIN

CITY           SKY/WX    TMP DP  RH WIND       PRES   REMARKS
MANITOWISH WTR CLOUDY    38  35  91 CALM      30.14S
ARBOR VITAE    CLOUDY    39  36  87 N3        30.14S
WOODRUFF       CLOUDY    39  36  87 N3        30.14S
RHINELANDER    CLOUDY    42  36  79 VRB5      30.14R
EAGLE RIVER    MOSUNNY   39  32  76 N7        30.13S WCI  34
LAND O LAKES   CLOUDY    40  34  79 N5        30.15S
PHILLIPS       CLOUDY    38  35  88 N5        30.14R WCI  34
TOMAHAWK       CLOUDY    38  37  94 N3        30.14S
MEDFORD        CLOUDY    38  38 100 NW5       30.13S WCI  34
MERRILL        CLOUDY    39  38  97 CALM      30.15R
$$

WIZ029-030-035-036-043>047-291400-
CENTRAL WISCONSIN

CITY           SKY/WX    TMP DP  RH WIND       PRES   REMARKS
WAUSAU         CLOUDY    42  36  79 N3        30.13R
MOSINEE        CLOUDY    37  37 100 NE3       30.15R
MARSHFIELD     CLOUDY    41  36  82 NE6       30.13R
STEVENS POINT  CLOUDY    37  35  95 N5        30.14R WCI  33
WAUPACA        CLOUDY    42  36  80 N5        30.14R
WAUTOMA        NOT AVBL
WISC RAPIDS    CLOUDY    41  35  79 NE8       30.15R
CAMP DOUGLAS   NOT AVBL
$$

WIZ011>013-019>022-031-037>040-048>050-291400-
NORTHEAST WISCONSIN

CITY           SKY/WX    TMP DP  RH WIND       PRES   REMARKS
ANTIGO         CLOUDY    38  36  92 N8        30.13S WCI  32
SHAWANO        CLOUDY    42  36  80 N5        30.14S
OCONTO         CLOUDY    41  32  70 N5        30.14R
STURGEON BAY   CLOUDY    41  32  70 NE5       30.16R
GREEN BAY      CLOUDY    43  34  70 N9        30.14R
MANITOWOC      NOT AVBL
APPLETON       CLOUDY    39  32  75 N8        30.11R WCI  34
CLINTONVILLE   CLOUDY    41  34  75 N3        30.14R
OSHKOSH        CLOUDY    42  34  73 N10       30.12R
$$

WIZ032>034-041-042-053>061-291400-
SOUTHWEST WISCONSIN

CITY           SKY/WX    TMP DP  RH WIND       PRES   REMARKS
LA CROSSE      CLOUDY    42  37  82 N8        30.14F
SPARTA         CLOUDY    39  38  94 CALM      30.15F
VIROQUA        CLOUDY    38  38 100 N6        30.12F WCI  33
BOSCOBEL       CLOUDY    42  38  85 NE6       30.12F
PRAIRIE DU CHI CLOUDY    41  36  81 CALM      30.13F
PLATTEVILLE    CLOUDY    41  40  95 N9        30.10F
$$

WIZ056-057-062-063-064-067-068-291400-
SOUTH CENTRAL WISCONSIN

CITY           SKY/WX    TMP DP  RH WIND       PRES   REMARKS
REEDSBURG      CLOUDY    39  38  97 N5        30.13S
BARABOO/DELLS  CLOUDY    38  37  94 N5        30.12S WCI  35
LONE ROCK      NOT AVBL
MINERAL POINT  CLOUDY    41  39  93 N8        30.10F
MADISON        PTSUNNY   40  37  89 N5        30.12R
MIDDLETON      CLOUDY    41  38  88 N7        30.12R
WATERTOWN      CLOUDY    39  39  99 NW6       30.11R
MONROE         CLOUDY    39  37  93 N9G16     30.09F WCI  33
JANESVILLE     PTSUNNY   43  41  93 N6        30.10R
$$

WIZ051-052-058>065-066-070>072-291400-
SOUTHEAST WISCONSIN

CITY           SKY/WX    TMP DP  RH WIND       PRES   REMARKS
MILWAUKEE      CLOUDY    41  37  86 N9        30.10R
WAUKESHA       CLOUDY    39  37  93 N6        30.11R WCI  35
MILWAUKEE/TIMM CLOUDY    39  36  87 N5        30.12R
RACINE         CLOUDY    41  38  89 N7        30.11R
BURLINGTON     CLOUDY    39  38  95 NW3       30.10R
KENOSHA        CLOUDY    42  38  85 N8        30.09S
FOND DU LAC    CLOUDY    42  36  79 NE10      30.12R
SHEBOYGAN      CLOUDY    39  35  86 N5        30.12R
WEST BEND      CLOUDY    37  36  93 N6        30.10R WCI  33
JUNEAU         CLOUDY    39  37  91 N6        30.12R WCI  35
$$

LSZ147-162-291400-
LAKE SUPERIOR

STATION/POSITION TIME  TEMP    WIND        PRES    WAVE
                       AIR SEA DIR/SP/G            HT/PER
                 (UTC) (F)     (DEG/KT/KT) (MB)    (FT/S)
W MID LAKE BUOY  1150   38 36   30/ 10/ 12 1022.8R   1
DEVILS ISLAND    1200   38      10/  9/  9 1023.0R
SAXON HARBOR     1200   32     190/  2/  3 1021.3S
$$

LMZ867-665-643>646-291400-
LAKE MICHIGAN

STATION/POSITION TIME  TEMP    WIND        PRES    WAVE
                       AIR SEA DIR/SP/G            HT/PER
                 (UTC) (F)     (DEG/KT/KT) (MB)    (FT/S)
CHAMBERS ISLAND  1200   40      10/ 11/ 13 1020.3R
N MID LAKE BUOY  1150   40 38  120/ 10/ 12 1020.5R   1
NORTHPORT PIER   1200   41      30/  8/ 11 1020.0R
ALGOMA LAKESHORE 1145          350/  3/  5   N/A
KEWAUNEE LAKESHO 1200   41     360/  3/  6 1019.2R
SHEBOYGAN LAKESH 1200   39      20/ 10/ 11 1020.4R
PORT WASHINGTON  1200   40      10/  3/  4 1020.0R
S MID LAKE BUOY  1150   40 40   40/  6/  8 1018.3R   1/ 3
KENOSHA   LAKESH 1200   41     340/  7/  9 1019.0R
$$

TC  - TEMPERATURE IN CELSIUS
VSB - VISIBILITY IN STATUTE MILES
WCI - WIND CHILL INDEX
HX  - HEAT INDEX





USA.gov is the U.S. government's official web portal to all federal, state and local government web resources and services.